Погода в Чегдомыне

Россия / Хабаровский край     51°08′01″N   133°02′10″E
темп.,
°C
ветер,
м/с
пор.,
м/с
влажн.,
%
обл.,
%
осадки,
мм/ч
давл.,
гПа
погр.,
м
12 апреля, пн
пн1201:00−3с375894 0.0 1025496
04:00−4ссз3450100 0.0 1023361
07:00−4ссз2248100 0.0 1021395
10:00−2с2254100 0.0 1019828
13:00−2с3582100 0.7 1015604
16:00−2ссв3588100 3.6 1011454
19:00−3ссз3795100 4.1 1009452
22:00−4ссз3796100 7.4 1010340
13 апреля, вт
вт1301:00−6сз3795100 1.9 1009361
04:00−6сз2695100 3.1 1008337
07:00−7зсз2495100 1.0 1007290
10:00−5зсз2390100 2.1 1005526
13:00−3зюз2288100 1.6 1003708
16:00−2сз2391100 3.3 1001575
19:00−3с2592100 1.4 1000497
22:00−10св2297100 2.1 100235
14 апреля, ср
ср1401:00−7св2496100 0.4 1001256
04:00−8св1397100 0.9 1002161
07:00−9ссв1195100 0.3 100366
10:00−5ссз1285100 0.8 1003728
13:00−4сз3371100 0.9 10031329
16:00−3зсз3562100 1.3 10041592
19:00−4зсз3873100 0.2 1006569
22:00−13ююз119527 0.2 10109
15 апреля, чт
чт1501:00−16юв119841 0.0 101211
04:00−17вюв11976 0.0 10139
07:00−16вюв119539 0.0 101515
10:00−5ююз11735 0.0 1014348
13:000ююз11665 0.0 1013990
16:00+1ююв2160100 0.0 10131259
19:00−1вюв127749 0.0 101346
22:00−6всв229188 0.0 101623
16 апреля, пт
пт1601:00−6всв2389100 0.0 101352
04:00−4св2488100 0.1 1012105
07:00−4св3693100 0.9 1010164
10:000ссв2377100 1.0 1009308
13:00+5св3476100 0.0 1008445
16:00+6юв0581100 0.0 1006455
19:00+3ссв2594100 0.1 1007129
22:00−1св1197100 0.1 100814